This demonstration page uses our WeatherBlox Daily Observations layout. Learn more.

Left ArrowRight Arrow

Hourly Observations for August 17, 2022

Temp ( °F °C ) Dew Point ( °F °C ) Humidity (%) Winds ( mph kmh ) Pressure ( in mb ) Visibility ( mi km ) Precip ( " mm )
12:59 am 00:59 Mostly Clear 72 22.2 66 18.9 82 82 NNE 9 15 29.97 1015 10 16 0.00 0.00
1:59 am 01:59 Mostly Clear 72 22.2 64 17.8 76 76 NNE 9 15 29.95 1014 10 16 0.00 0.00
2:59 am 02:59 Mostly Clear 72 22.2 66 18.9 82 82 NE 8 13 29.95 1014 10 16 0.00 0.00
3:59 am 03:59 Mostly Clear 70 21.1 66 18.9 87 87 NE 8 13 29.95 1014 10 16 0.00 0.00
4:59 am 04:59 Mostly Cloudy 70 21.1 66 18.9 87 87 NE 12 19 29.95 1014 10 16 0.00 0.00
5:59 am 05:59 Mostly Clear 70 21.1 64 17.8 81 81 NE 13 20 29.96 1015 10 16 0.00 0.00
6:59 am 06:59 Mostly Sunny 72 22.2 63 17.2 73 73 NE 13 20 29.97 1015 10 16 0.00 0.00
7:59 am 07:59 Mostly Sunny 72 22.2 63 17.2 73 73 NE 17 28 29.98 1015 10 16 0.00 0.00
8:59 am 08:59 Mostly Sunny 75 23.9 64 17.8 69 69 NE 18 30 30.00 1016 10 16 0.00 0.00
9:59 am 09:59 Partly Cloudy 78 25.6 65 18.3 64 64 NE 15 24 30.01 1016 10 16 0.00 0.00
10:59 am 10:59 Partly Cloudy 78 25.6 65 18.3 64 64 NNE 14 22 30.01 1016 10 16 0.00 0.00
11:59 am 11:59 Partly Cloudy 79 26.1 68 20 69 69 N 12 19 30.02 1017 10 16 0.00 0.00
12:59 pm 12:59 Sunny 79 26.1 68 20 69 69 NNE 13 20 30.01 1016 10 16 0.00 0.00
1:59 pm 13:59 Mostly Cloudy 81 27.2 66 18.9 61 61 NE 10 17 30.00 1016 10 16 0.00 0.00
2:59 pm 14:59 Mostly Cloudy 81 27.2 64 17.8 57 57 ENE 14 22 29.99 1016 10 16 0.00 0.00
3:59 pm 15:59 Mostly Sunny 77 25 61 16.1 58 58 ENE 12 19 29.98 1015 10 16 0.00 0.00
4:59 pm 16:59 Mostly Sunny 75 23.9 61 16.1 62 62 E 9 15 29.98 1015 10 16 0.00 0.00
5:59 pm 17:59 Mostly Sunny 77 25 61 16.1 58 58 ENE 12 19 29.98 1015 10 16 0.00 0.00
6:59 pm 18:59 Partly Cloudy 75 23.9 63 17.2 66 66 E 9 15 29.97 1015 10 16 0.00 0.00
7:59 pm 19:59 Partly Cloudy 72 22.2 62 16.7 71 71 E 6 9 29.98 1015 10 16 0.00 0.00
8:59 pm 20:59 Mostly Clear 70 21.1 63 17.2 78 78 Calm 29.99 1016 10 16 0.00 0.00
9:59 pm 21:59 Mostly Clear 67 19.4 62 16.7 84 84 Calm 29.99 1016 10 16 0.00 0.00
10:59 pm 22:59 Mostly Clear 67 19.4 63 17.2 87 87 Calm 29.99 1016 10 16 0.00 0.00
11:59 pm 23:59 Mostly Clear 65 18.3 61 16.1 87 87 Calm 29.99 1016 10 16 0.00 0.00

Powered by AerisWeather